Location: Nitra
(0.0000°N, 18.0833°E)
Time: 09:13:33
(UTC+02:00)

A-11 Canister half - Pass Details

Date: 06 April 2023
Orbit: 1513 x 1686 km, 47.2° (Epoch: 02 June)

Event Time Altitude Azimuth Distance (km) Brightness Sun altitude
Exits shadow 03:40:36 45° 112° (ESE) 2,143 9.8 -47.0°
Drops below altitude 10° 03:47:07 10° 131° (SE) 3,877 11.4 -45.4°
Sets 03:50:15 0° 133° (SE) 4,844 12.0 -44.7°
